200 serials | registration code 4videosoft ts converter

Date Name Success Rate
2009-10-17 06:19:27 Bar Code Pro V6.02 48%
2009-10-17 06:20:25 Code VBA V2.0 41%
2009-10-17 06:20:25 Code Visualizer V2.52 54%
2009-10-17 06:20:25 Code Visualizer V2.97 71%
2009-10-17 06:20:25 Code Visualizer V3.1 35%
2009-10-17 06:20:25 Code Visualizer V3.38 44%
2009-10-17 06:27:02 Lazarus Registration DLL V1.0 59%
2009-10-17 06:34:52 Virtual CD TS V9.1 0%
2009-10-17 06:34:52 Virtual CD TS V9.2 56%
2009-10-22 23:27:16 Airpor S/n: Ts 2000 Vol2 0%
2009-10-22 23:27:16 Airpor S/n: Ts 2000 Vol3 0%
2009-10-22 23:27:21 Ardamax Keylogger 2.9 Registration 56%
2009-10-22 23:44:48 Bar Code 128 3.0 0%
2009-10-22 23:44:48 Bar Code Pro V6.11 0%
2009-10-22 23:45:53 Code Co-op 4.1 44%
2009-10-22 23:45:53 Code Source 34%
2009-10-22 23:45:53 Code Vault 2.2 13%
2009-10-22 23:45:53 Code Visual To Flowchart V5.3.1030 14%
2009-10-22 23:45:53 Code Visualizer V2.52 0%
2009-10-22 23:45:53 Code Visualizer V2.87 0%
2009-10-22 23:45:53 Code Visualizer V2.97 50%
2009-10-22 23:45:53 Code-Genie 3.05.14 0%
2009-10-22 23:45:53 Code-Genie 3.10.20 0%
2009-10-22 23:48:17 Internet Download Manager Registration 50%
2009-10-22 23:48:48 MemoriesonTV Registration 0%
2009-10-22 23:48:49 Microsoft Registration Hacker - 39%
2009-10-22 23:49:02 Norton Internet Security 2005 Registration Guide 0%
2009-10-22 23:49:42 Registration Wizard 56%
2009-10-22 23:49:52 Serial Code Ultimate 67%
2009-10-22 23:49:57 SoudForge ALL (No Registration Requiered) 0%
2009-10-22 23:50:10 The Nightshift Code V1.0.0.76 0%
2009-10-22 23:50:13 TS-audio Tomidi 0%
2009-10-22 23:50:26 Valve's Registration Armor Key-Gen 60%
2009-10-22 23:50:27 Virtual CD TS V9.1 0%
2009-10-22 23:50:27 Virtual CD TS V9.2 0%
2009-10-22 23:50:36 Windows Vista Ultimate [TS] [email protected] 0%
2009-10-22 23:50:39 Word Of Warcraft Trial Code 60%
2011-09-08 09:58:40 Acoustica Mixcraft v1.10 Build 15 Registration Info by MaBi 60%
2011-09-08 10:00:42 Adobe PhotoShop v5.0x78 Code 0%
2011-09-08 10:00:45 Adobe Premiere v5.0 Code 60%
2011-09-08 10:01:05 Advanced Code Editor 3.0.6 0%
2011-09-08 10:01:05 Advanced Code Editor v3.0.6 0%
2011-09-08 10:02:19 Agent v1.5 Code 0%
2011-09-08 10:02:50 Airpor s/n: ts 2000 Vol2 0%
2011-09-08 10:02:50 Airpor s/n: ts 2000 Vol3 0%
2011-09-08 10:02:50 Airpor ts 2000 Vol2 0%
2011-09-08 10:02:50 Airpor ts 2000 Vol3 0%
2011-09-08 10:02:50 Airpor ts 2000 vVol2 0%
2011-09-08 10:02:50 Airpor ts 2000 vVol3 0%
2011-09-08 10:06:47 AnetHelpTool v4.02 Registration 60%
2011-09-08 10:06:56 Animated Slots v1.3 Code 0%
2011-09-08 10:09:13 Astound WebMotion Code 0%
2011-09-08 10:11:47 AutoCAD 2002 Authorization code 49%
2011-09-08 10:11:47 Autocad lite R3 Code 0%
2011-09-08 10:12:14 Automate Pro V3.7E Code 0%
2011-09-08 10:12:16 AutoMate Standard V3.6E Code 0%
2011-09-08 10:18:48 Bar Code 128 v3.0 0%
2011-09-08 10:18:52 Bar Code Pro 6.02 0%
2011-09-08 10:21:42 Browserola v1.01 Temp. Registration 0%
2011-09-08 10:22:13 ByeLines Registration 60%
2011-09-08 10:23:14 Calendar 98 Code: EPOCH 0%
2011-09-08 10:23:45 Canvas v3.5 Code 0%
2011-09-08 10:25:39 Check-It Professional v5.0 Code 0%
2011-09-08 10:25:41 CheckIt v5.0 Code 0%
2011-09-08 10:25:56 Cheyenne Bitware V4.0 Registration Number 60%
2011-09-08 10:26:46 Clipboard Extender v1.01 Code 0%
2011-09-08 10:27:32 Code 55%
2011-09-08 10:27:32 Code Assist 1.1 40%
2011-09-08 10:27:32 Code Cache v3.01 0%
2011-09-08 10:27:32 Code Charge v2.0 0%
2011-09-08 10:27:32 Code co-op 3.1 0%
2011-09-08 10:27:32 Code Co-op 4.1 60%
2011-09-08 10:27:32 Code Co-op 4.1a 0%
2011-09-08 10:27:32 Code co-op v3.1 0%
2011-09-08 10:27:32 Code Co-Op v3.3b 61%
2011-09-08 10:27:32 Code Co-op v4.1 0%
2011-09-08 10:27:32 Code Co-op v4.2 0%
2011-09-08 10:27:32 Code Co-op v4.5c 40%
2011-09-08 10:27:32 Code Database 2.2.3 0%
2011-09-08 10:27:32 Code Digger 2.0+ 0%
2011-09-08 10:27:32 Code Digger v2.11 0%
2011-09-08 10:27:32 Code Edit Studio v1.0 0%
2011-09-08 10:27:32 Code Keeper 1.10 0%
2011-09-08 10:27:32 Code Keeper v1.20 0%
2011-09-08 10:27:32 Code Lobster 3.3.2 0%
2011-09-08 10:27:32 Code Lobster v2.1.26 0%
2011-09-08 10:27:32 Code Maker v3.36 0%
2011-09-08 10:27:36 Code Metric v1.02 0%
2011-09-08 10:27:36 Code Print Pro 3.2 0%
2011-09-08 10:27:36 Code Vault v2.2 0%
2011-09-08 10:27:36 Code Whiz 1.7.1.01b 91%
2011-09-08 10:27:36 Code Whiz Editor v1.2 0%
2011-09-08 10:27:36 Code Whiz v1.6 79%
2011-09-08 10:27:36 Code Whiz v1.7.1.01b 63%
2011-09-08 10:27:36 Code Wizard 3.0 P1 0%
2011-09-08 10:27:36 Code-Genie 3.05.19 0%
2011-09-08 10:27:36 Code-Genie 3.10.06 0%
2011-09-08 10:27:36 Code-Genie v1.10.20 by REVENGE 0%
2011-09-08 10:27:36 Code-Genie v3.05.14 0%
2011-09-08 10:27:36 Code-Genie v3.07.17 63%
2011-09-08 10:27:36 Code-Genie Version: 3.07.31 0%
2011-09-08 10:28:24 Compress & Expand v1.0 Code 0%
2011-09-08 10:31:39 CorelDraw v8.0 Code 67%
2011-09-08 10:31:42 Cosmo Code 2.5 59%
2011-09-08 10:31:42 Cosmo Code v2.5 0%
2011-09-08 10:42:09 DAS Registration 1.5.2 69%
2011-09-08 10:42:09 DAS Registration For CW5 0%
2011-09-08 10:42:09 DAS Registration v1.5.2 0%
2011-09-08 10:43:58 DiskCat V4.3 Code 0%
2011-09-08 10:44:47 Dragon Dictate v3.0 Code 0%
2011-09-08 10:44:55 Drive Image Pro Code 0%
2011-09-08 10:46:43 EAN Bar Code 0%
2011-09-08 10:49:18 EMD Encryptor v1.0 Code 0%
2011-09-08 10:49:57 ESS Code 0%
2011-09-08 10:49:57 ESS-Code 0%
2011-09-08 10:49:57 ESS-Code/32 v7.8 0%
2011-09-08 10:56:11 FontLook v3.1 Registration Code 86%
2011-09-08 10:57:42 Ftgate Registration 63%
2011-09-08 11:02:29 GetRight v2.0 Code 0%
2011-09-08 11:06:35 Hexer Code 0%
2011-09-08 11:07:11 Hijaak Pro v4.0 Code 0%
2011-09-08 11:09:23 HotButtons V1.01 Code 0%
2011-09-08 11:09:29 Hotfax Code 0%
2011-09-08 11:09:40 HTML Code Cleaner 3.10.9 0%
2011-09-08 11:09:48 HTML To Any Code 1.4 0%
2011-09-08 11:10:02 Hurricane `98 Code 0%
2011-09-08 11:15:16 Infodex v2.10 Registration 0%
2011-09-08 11:15:42 InstallShield 5 ProInternational Code 0%
2011-09-08 11:18:31 Java Perk v4.0 Code 0%
2011-09-08 11:24:46 L3ENC Code 0%
2011-09-08 11:25:08 Lazarus Registration DLL v1.0 0%
2011-09-08 11:27:46 Mac Drive 98 Code 0%
2011-09-08 11:27:46 Mac Opener v3.0 Registration 57%
2011-09-08 11:29:17 Mapedit v2.3 Code 0%
2011-09-08 11:30:16 MediaBlaze 98 v1.01 Win95/NT User: delphic Registration 0%
2011-09-08 11:31:51 Microsoft Registration Hacker 0%
2011-09-08 11:31:51 Microsoft Registration Hacker - 0%
2011-09-08 11:31:51 Microsoft Registration Hacker MSREGHACK 80%
2011-09-08 11:31:51 Microsoft Registration HackerMSREGHACK 0%
2011-09-08 11:31:51 Microsoft Visual Basic 5 registration cd key 72%
2011-09-08 11:32:07 Microstation v5.xx.xx & 95 FULL REGISTRATION 48%
2011-09-08 11:32:59 mIRC v4.5+ Registration 60%
2011-09-08 11:32:59 mIRC v4.52 Registration 60%
2011-09-08 11:33:19 Modem Wizard 97 Code 0%
2011-09-08 11:40:22 Naviscope v5.0 Code 0%
2011-09-08 11:42:43 Nic O'Matic 1.6 Registration Code 50%
2011-09-08 11:42:43 Nic O'Matic v1.6 Registration Code 55%
2011-09-08 12:27:05 Opera v3.0 Code 0%
2011-09-08 12:27:36 PACKETBOY V1.1 Code 0%
2011-09-08 12:30:36 Photo Line v3.09 Code 0%
2011-09-08 12:34:09 Pixel3D FIRST KEY CODE 0%
2011-09-08 12:34:30 Pluck-It Code 0%
2011-09-08 12:34:30 PluckIt! Code 0%
2011-09-08 12:34:57 PolyTrans V1.2E Registration Activator CD-Key 62%
2011-09-08 12:34:57 PolyView v2.9b16 Registration 0%
2011-09-08 12:35:29 Poster V5.2A Code 0%
2011-09-08 12:35:55 PowerDVD Code 55%
2011-09-08 12:36:25 Premier Code Writer v2.0c 0%
2011-09-08 12:37:02 Quant v2.0 Registration 0%
2011-09-08 12:38:33 Program Code Audit v1.0 0%
2011-09-08 12:40:39 Ready Code 98 1.0 7%
2011-09-08 12:40:54 Recognita PLUS v3.0 Code 0%
2011-09-08 12:41:14 Registration Suite 1.0 60%
2011-09-08 12:41:14 Registration Suite v1.0 60%
2011-09-08 12:41:14 Registration Wizard Pro 5.01 0%
2011-09-08 12:41:14 Registration Wizard Pro v5.01 60%
2011-09-08 12:50:25 Source Code Plus 2.01 60%
2011-09-08 12:51:47 TapeMaker v4.0b Code 0%
2011-09-08 12:54:09 Time Registration (German) 1.10 0%
2011-09-08 12:54:14 TimeSlips 10.5 enterprise - with registration code! 0%
2011-09-08 12:56:04 TS ChainLauncher 1.3.3 0%
2011-09-08 12:56:04 TS ChainLauncher v1.3.3 0%
2011-09-08 12:56:04 TS-AudioCD MP3-Studio 1.1b 0%
2011-09-08 12:56:04 TS-AudioCD MP3-Studio v1.1b 0%
2011-09-08 12:56:04 TS-Imagemapper 1.0 0%
2011-09-08 12:56:04 TS-Imagemapper 1.2 0%
2011-09-08 12:56:04 TS-Imagemapper v1.0 0%
2011-09-08 12:56:04 TS-Imagemapper v1.2 0%
2011-09-08 12:58:35 STD Code DeCoder v3.0 0%
2011-09-08 12:59:30 Super Collapse Registration 100%
2011-09-08 13:00:45 Syncronys BigDisk V1.0 Code 0%
2011-09-08 13:07:58 Ultra Links TS 2.7 0%
2011-09-08 13:07:58 Ultra Links TS v2.7 0%
2011-09-08 13:16:51 Webspider Code 0%
2011-09-08 13:17:00 WebTermX v1.0 Code 0%
2011-09-08 13:17:00 WebTrimmer Lite v1.10a Code 15%
2011-09-08 13:17:33 WinAce Free User's Code 0%
2011-09-08 13:18:59 WinHacker 95 v2.02 Registration 57%
2011-09-08 13:19:44 WinSplitter'95 v1.5 Code 0%
2011-09-08 13:20:32 Word Sniffer v1.1 Code 0%
2011-09-08 13:20:47 Wowza Media Server Pro Unlimited with MPEG-TS 1.7.2 0%
2011-09-08 13:23:15 Yipe! II for Windows Registration #154 0%
2011-09-08 13:23:48 Zip Code Book 4.0 0%
2012-12-12 05:06:04 camfrog CODE : 28%
2012-12-12 06:04:17 Code It MP3.Recorder v1.0 0%
2012-12-12 06:04:22 Code4ward Royal TS v1.7.4 36%
2012-12-12 06:52:51 Cultured Code Things v1.2.6 0%
2012-12-12 08:07:32 Download avast 5.0.667 Antivirus registration 0%
2012-12-12 16:57:20 Kickback code 0%
2012-12-12 19:40:26 Microsoft Visual Basic 2008 Express Edition Registration key 20%